This demonstration page uses our WeatherBlox Daily Observations layout. Learn more.

Left ArrowRight Arrow

31.84235, -102.49876

Hourly Observations for March 30, 2017

Temp ( °F °C ) Dew Point ( °F °C ) Humidity (%) Winds ( mph kmh ) Pressure ( in mb ) Visibility ( mi km ) Precip ( " mm )
12:53 am 00:53 Clear 45 7.2 35 1.7 68 68 NW 7 11 29.97 1015 10 16 0.00 0.00
1:53 am 01:53 Clear 44 6.7 35 1.7 71 71 NW 5 7 29.96 1015 10 16 0.00 0.00
2:53 am 02:53 Clear 43 6.1 35 1.7 74 74 W 6 9 29.96 1015 10 16 0.00 0.00
3:53 am 03:53 Clear 43 6.1 34 1.1 71 71 W 5 7 29.94 1014 10 16 0.00 0.00
4:53 am 04:53 Clear 42 5.6 34 1.1 73 73 WSW 5 7 29.93 1014 10 16 0.00 0.00
5:53 am 05:53 Clear 43 6.1 34 1.1 71 71 WSW 5 7 29.93 1013 10 16 0.00 0.00
6:53 am 06:53 Clear 44 6.7 35 1.7 71 71 SW 6 9 29.91 1013 10 16 0.00 0.00
7:53 am 07:53 Sunny 44 6.7 35 1.7 71 71 WSW 9 15 29.91 1013 10 16 0.00 0.00
8:53 am 08:53 Sunny 49 9.4 36 2.2 61 61 SW 9 15 29.91 1013 10 16 0.00 0.00
9:53 am 09:53 Sunny 57 13.9 36 2.2 45 45 SW 13 20 29.90 1012 10 16 0.00 0.00
10:53 am 10:53 Sunny 63 17.2 32 0 31 31 SW 17 28 29.88 1012 10 16 0.00 0.00
11:53 am 11:53 Sunny 69 20.6 32 0 25 25 SW 18 30 29.85 1011 10 16 0.00 0.00
12:53 pm 12:53 Sunny 73 22.8 33 0.6 23 23 SW 16 26 29.82 1010 10 16 0.00 0.00
1:53 pm 13:53 Sunny 76 24.4 31 -0.6 19 19 WSW 15 24 29.78 1009 10 16 0.00 0.00
2:53 pm 14:53 Sunny 80 26.7 28 -2.2 15 15 W 18 30 29.73 1007 10 16 0.00 0.00
3:53 pm 15:53 Sunny 82 27.8 28 -2.2 14 14 WSW 23 37 29.69 1005 10 16 0.00 0.00
4:53 pm 16:53 Sunny 83 28.3 20 -6.7 10 10 WSW 20 31 29.67 1005 10 16 0.00 0.00
5:53 pm 17:53 Sunny 84 28.9 17 -8.3 8 8 W 23 37 29.65 1004 10 16 0.00 0.00
6:53 pm 18:53 Sunny 82 27.8 18 -7.8 9 9 W 16 26 29.64 1004 10 16 0.00 0.00
7:53 pm 19:53 Sunny 79 26.1 18 -7.8 10 10 WSW 9 15 29.64 1004 10 16 0.00 0.00
8:53 pm 20:53 Clear 71 21.7 20 -6.7 14 14 SW 6 9 29.65 1004 10 16 0.00 0.00
9:53 pm 21:53 Clear 70 21.1 20 -6.7 15 15 SW 5 7 29.65 1004 10 16 0.00 0.00
10:53 pm 22:53 Clear 65 18.3 21 -6.1 19 19 W 7 11 29.65 1004 10 16 0.00 0.00
11:53 pm 23:53 Clear 64 17.8 23 -5 21 21 SW 5 7 29.63 1004 10 16 0.00 0.00

Powered by AerisWeather